Retour au catalogue

SL-14 R/B

ActifPO
NORAD 22287·ROCKET BODY·🇷🇺 Russia

Lancé Dec 25, 1992 depuis Plesetsk Cosmodrome

Loading…

Prochains Passages (prochaines 24 heures)

TLE

FraisSource: Space-Track

Époque: Sep 14, 2026, 22:04 UTC

1 22287U 92094B   26257.91994180  .00000278  00000-0  33266-4 0  9999
2 22287  82.5268 176.6094 0025341  76.5104 283.8930 14.80153997796513

Suivez SL-14 R/B en temps réel avec AllMySat

Download on the App Store